Time,TemperatureF,DewpointF,PressureIn,WindDirection,WindDirectionDegrees,WindSpeedMPH,WindSpeedGustMPH,Humidity,HourlyPrecipIn,Conditions,Clouds,dailyrainin,SoftwareType,DateUTC
2013-03-07 00:05:00,28.1,17.1,29.96,WNW,293,11.0,24.0,63,0.00,,,0.00,Wunderground v.1.12,2013-03-07 05:05:00,
2013-03-07 00:10:00,28.1,17.1,29.96,WNW,293,11.0,24.0,63,0.00,,,0.00,Wunderground v.1.12,2013-03-07 05:10:00,
2013-03-07 00:15:00,28.1,17.1,29.96,WNW,293,11.0,24.0,63,0.00,,,0.00,Wunderground v.1.12,2013-03-07 05:15:00,
2013-03-07 00:20:00,28.1,17.1,29.96,WNW,293,11.0,24.0,63,0.00,,,0.00,Wunderground v.1.12,2013-03-07 05:20:00,
2013-03-07 00:25:00,28.1,17.1,29.96,WNW,293,11.0,24.0,63,0.00,,,0.00,Wunderground v.1.12,2013-03-07 05:25:00,
2013-03-07 00:30:00,28.1,17.1,29.96,WNW,293,11.0,24.0,63,0.00,,,0.00,Wunderground v.1.12,2013-03-07 05:30:00,
2013-03-07 00:35:00,28.1,17.1,29.96,WNW,293,11.0,24.0,63,0.00,,,0.00,Wunderground v.1.12,2013-03-07 05:35:00,
2013-03-07 00:40:00,28.1,17.1,29.96,WNW,293,11.0,24.0,63,0.00,,,0.00,Wunderground v.1.12,2013-03-07 05:40:00,
2013-03-07 00:45:00,28.5,17.9,29.97,WNW,293,10.0,21.0,64,0.00,,,0.00,Wunderground v.1.12,2013-03-07 05:45:00,
2013-03-07 00:50:00,28.5,17.9,29.97,WNW,293,10.0,21.0,64,0.00,,,0.00,Wunderground v.1.12,2013-03-07 05:50:00,
2013-03-07 00:55:00,28.5,17.9,29.97,WNW,293,10.0,21.0,64,0.00,,,0.00,Wunderground v.1.12,2013-03-07 05:55:00,
2013-03-07 01:00:00,28.5,17.9,29.97,WNW,293,10.0,21.0,64,0.00,,,0.00,Wunderground v.1.12,2013-03-07 06:00:00,
2013-03-07 01:05:00,28.5,17.9,29.97,WNW,293,10.0,21.0,64,0.00,,,0.00,Wunderground v.1.12,2013-03-07 06:05:00,
2013-03-07 01:10:00,28.5,17.9,29.97,WNW,293,10.0,21.0,64,0.00,,,0.00,Wunderground v.1.12,2013-03-07 06:10:00,
2013-03-07 01:15:00,28.2,16.8,29.98,NW,315,10.0,21.0,62,0.00,,,0.00,Wunderground v.1.12,2013-03-07 06:15:00,
2013-03-07 01:20:00,28.2,16.8,29.98,NW,315,10.0,21.0,62,0.00,,,0.00,Wunderground v.1.12,2013-03-07 06:20:00,
2013-03-07 01:25:00,28.2,16.8,29.98,NW,315,10.0,21.0,62,0.00,,,0.00,Wunderground v.1.12,2013-03-07 06:25:00,
2013-03-07 01:30:00,28.2,16.8,29.98,NW,315,10.0,21.0,62,0.00,,,0.00,Wunderground v.1.12,2013-03-07 06:30:00,
2013-03-07 01:35:00,28.2,16.8,29.98,NW,315,10.0,21.0,62,0.00,,,0.00,Wunderground v.1.12,2013-03-07 06:35:00,
2013-03-07 01:40:00,28.2,16.8,29.98,NW,315,10.0,21.0,62,0.00,,,0.00,Wunderground v.1.12,2013-03-07 06:40:00,
2013-03-07 01:50:00,27.6,20.1,29.99,NW,315,9.0,20.0,73,0.00,,,0.00,Wunderground v.1.12,2013-03-07 06:50:00,
2013-03-07 01:55:00,27.6,20.1,29.99,NW,315,9.0,20.0,73,0.00,,,0.00,Wunderground v.1.12,2013-03-07 06:55:00,
2013-03-07 02:00:00,27.6,20.1,29.99,NW,315,9.0,20.0,73,0.00,,,0.00,Wunderground v.1.12,2013-03-07 07:00:00,
2013-03-07 02:05:00,27.6,20.1,29.99,NW,315,9.0,20.0,73,0.00,,,0.00,Wunderground v.1.12,2013-03-07 07:05:00,
2013-03-07 02:10:00,27.6,20.1,29.99,NW,315,9.0,20.0,73,0.00,,,0.00,Wunderground v.1.12,2013-03-07 07:10:00,
2013-03-07 02:15:00,28.7,20.5,30.00,NW,315,9.0,22.0,71,0.00,,,0.00,Wunderground v.1.12,2013-03-07 07:15:00,
2013-03-07 02:20:00,28.7,20.5,30.00,NW,315,9.0,22.0,71,0.00,,,0.00,Wunderground v.1.12,2013-03-07 07:20:00,
2013-03-07 02:25:00,28.7,20.5,30.00,NW,315,9.0,22.0,71,0.00,,,0.00,Wunderground v.1.12,2013-03-07 07:25:00,
2013-03-07 02:30:00,28.7,20.5,30.00,NW,315,9.0,22.0,71,0.00,,,0.00,Wunderground v.1.12,2013-03-07 07:30:00,
2013-03-07 02:35:00,28.7,20.5,30.00,NW,315,9.0,22.0,71,0.00,,,0.00,Wunderground v.1.12,2013-03-07 07:35:00,
2013-03-07 02:40:00,28.7,20.5,30.00,NW,315,9.0,22.0,71,0.00,,,0.00,Wunderground v.1.12,2013-03-07 07:40:00,
2013-03-07 02:45:00,29.4,18.3,30.00,NW,315,11.0,22.0,63,0.00,,,0.00,Wunderground v.1.12,2013-03-07 07:45:00,
2013-03-07 02:50:00,29.4,18.3,30.00,NW,315,11.0,22.0,63,0.00,,,0.00,Wunderground v.1.12,2013-03-07 07:50:00,
2013-03-07 02:55:00,29.4,18.3,30.00,NW,315,11.0,22.0,63,0.00,,,0.00,Wunderground v.1.12,2013-03-07 07:55:00,
2013-03-07 03:00:00,29.4,18.3,30.00,NW,315,11.0,22.0,63,0.00,,,0.00,Wunderground v.1.12,2013-03-07 08:00:00,
2013-03-07 03:05:00,29.4,18.3,30.00,NW,315,11.0,22.0,63,0.00,,,0.00,Wunderground v.1.12,2013-03-07 08:05:00,
2013-03-07 03:10:00,29.4,18.3,30.00,NW,315,11.0,22.0,63,0.00,,,0.00,Wunderground v.1.12,2013-03-07 08:10:00,
2013-03-07 03:15:00,29.3,21.4,30.00,NW,315,9.0,19.0,72,0.00,,,0.00,Wunderground v.1.12,2013-03-07 08:15:00,
2013-03-07 03:20:00,29.3,21.4,30.00,NW,315,9.0,19.0,72,0.00,,,0.00,Wunderground v.1.12,2013-03-07 08:20:00,
2013-03-07 03:25:00,29.3,21.4,30.00,NW,315,9.0,19.0,72,0.00,,,0.00,Wunderground v.1.12,2013-03-07 08:25:00,
2013-03-07 03:30:00,29.3,21.4,30.00,NW,315,9.0,19.0,72,0.00,,,0.00,Wunderground v.1.12,2013-03-07 08:30:00,
2013-03-07 03:35:00,29.3,21.4,30.00,NW,315,9.0,19.0,72,0.00,,,0.00,Wunderground v.1.12,2013-03-07 08:35:00,
2013-03-07 03:40:00,29.3,21.4,30.00,NW,315,9.0,19.0,72,0.00,,,0.00,Wunderground v.1.12,2013-03-07 08:40:00,
2013-03-07 03:45:00,28.2,21.0,30.02,NW,315,11.0,23.0,74,0.00,,,0.00,Wunderground v.1.12,2013-03-07 08:45:00,
2013-03-07 03:50:00,28.2,21.0,30.02,NW,315,11.0,23.0,74,0.00,,,0.00,Wunderground v.1.12,2013-03-07 08:50:00,
2013-03-07 03:55:00,28.2,21.0,30.02,NW,315,11.0,23.0,74,0.00,,,0.00,Wunderground v.1.12,2013-03-07 08:55:00,
2013-03-07 04:00:00,28.2,21.0,30.02,NW,315,11.0,23.0,74,0.00,,,0.00,Wunderground v.1.12,2013-03-07 09:00:00,
2013-03-07 04:05:00,28.2,21.0,30.02,NW,315,11.0,23.0,74,0.00,,,0.00,Wunderground v.1.12,2013-03-07 09:05:00,
2013-03-07 04:10:00,28.2,21.0,30.02,NW,315,11.0,23.0,74,0.00,,,0.00,Wunderground v.1.12,2013-03-07 09:10:00,
2013-03-07 04:15:00,30.1,20.5,30.02,WNW,293,9.0,20.0,67,0.00,,,0.00,Wunderground v.1.12,2013-03-07 09:15:00,
2013-03-07 04:20:00,30.1,20.5,30.02,WNW,293,9.0,20.0,67,0.00,,,0.00,Wunderground v.1.12,2013-03-07 09:20:00,
2013-03-07 04:25:00,30.1,20.5,30.02,WNW,293,9.0,20.0,67,0.00,,,0.00,Wunderground v.1.12,2013-03-07 09:25:00,
2013-03-07 04:30:00,30.1,20.5,30.02,WNW,293,9.0,20.0,67,0.00,,,0.00,Wunderground v.1.12,2013-03-07 09:30:00,
2013-03-07 04:35:00,30.1,20.5,30.02,WNW,293,9.0,20.0,67,0.00,,,0.00,Wunderground v.1.12,2013-03-07 09:35:00,
2013-03-07 04:40:00,30.1,20.5,30.02,WNW,293,9.0,20.0,67,0.00,,,0.00,Wunderground v.1.12,2013-03-07 09:40:00,
2013-03-07 04:45:00,30.6,18.7,30.03,WNW,293,10.0,23.0,61,0.00,,,0.00,Wunderground v.1.12,2013-03-07 09:45:00,
2013-03-07 04:50:00,30.6,18.7,30.03,WNW,293,10.0,23.0,61,0.00,,,0.00,Wunderground v.1.12,2013-03-07 09:50:00,
2013-03-07 04:55:00,30.6,18.7,30.03,WNW,293,10.0,23.0,61,0.00,,,0.00,Wunderground v.1.12,2013-03-07 09:55:00,
2013-03-07 05:00:00,30.6,18.7,30.03,WNW,293,10.0,23.0,61,0.00,,,0.00,Wunderground v.1.12,2013-03-07 10:00:00,
2013-03-07 05:05:00,30.6,18.7,30.03,WNW,293,10.0,23.0,61,0.00,,,0.01,Wunderground v.1.12,2013-03-07 10:05:00,
2013-03-07 05:10:00,30.6,18.7,30.03,WNW,293,10.0,23.0,61,0.00,,,0.01,Wunderground v.1.12,2013-03-07 10:10:00,
2013-03-07 05:20:00,32.2,19.5,30.03,NW,315,10.0,21.0,59,0.01,,,0.01,Wunderground v.1.12,2013-03-07 10:20:00,
2013-03-07 05:25:00,32.2,19.5,30.03,NW,315,10.0,21.0,59,0.01,,,0.01,Wunderground v.1.12,2013-03-07 10:25:00,
2013-03-07 05:30:00,32.2,19.5,30.03,NW,315,10.0,21.0,59,0.01,,,0.01,Wunderground v.1.12,2013-03-07 10:30:00,
2013-03-07 05:35:00,32.2,19.5,30.03,NW,315,10.0,21.0,59,0.01,,,0.01,Wunderground v.1.12,2013-03-07 10:35:00,
2013-03-07 05:40:00,32.2,19.5,30.03,NW,315,10.0,21.0,59,0.01,,,0.01,Wunderground v.1.12,2013-03-07 10:40:00,
2013-03-07 05:50:00,30.7,20.0,30.05,WNW,293,11.0,21.0,64,0.01,,,0.01,Wunderground v.1.12,2013-03-07 10:50:00,
2013-03-07 05:55:00,30.7,20.0,30.05,WNW,293,11.0,21.0,64,0.01,,,0.01,Wunderground v.1.12,2013-03-07 10:55:00,
2013-03-07 06:00:00,30.7,20.0,30.05,WNW,293,11.0,21.0,64,0.01,,,0.01,Wunderground v.1.12,2013-03-07 11:00:00,
2013-03-07 06:05:00,30.7,20.0,30.05,WNW,293,11.0,21.0,64,0.01,,,0.01,Wunderground v.1.12,2013-03-07 11:05:00,
2013-03-07 06:10:00,30.7,20.0,30.05,WNW,293,11.0,21.0,64,0.01,,,0.01,Wunderground v.1.12,2013-03-07 11:10:00,
2013-03-07 06:15:00,32.7,21.5,30.06,WNW,293,10.0,21.0,63,0.00,,,0.01,Wunderground v.1.12,2013-03-07 11:15:00,
2013-03-07 06:20:00,32.7,21.5,30.06,WNW,293,10.0,21.0,63,0.00,,,0.01,Wunderground v.1.12,2013-03-07 11:20:00,
2013-03-07 06:25:00,32.7,21.5,30.06,WNW,293,10.0,21.0,63,0.00,,,0.01,Wunderground v.1.12,2013-03-07 11:25:00,
2013-03-07 06:30:00,32.7,21.5,30.06,WNW,293,10.0,21.0,63,0.00,,,0.01,Wunderground v.1.12,2013-03-07 11:30:00,
2013-03-07 06:35:00,32.7,21.5,30.06,WNW,293,10.0,21.0,63,0.00,,,0.01,Wunderground v.1.12,2013-03-07 11:35:00,
2013-03-07 06:40:00,32.7,21.5,30.06,WNW,293,10.0,21.0,63,0.00,,,0.01,Wunderground v.1.12,2013-03-07 11:40:00,
2013-03-07 06:45:00,32.5,19.7,30.06,WNW,293,10.0,18.0,59,0.00,,,0.01,Wunderground v.1.12,2013-03-07 11:45:00,
2013-03-07 06:50:00,32.5,19.7,30.06,WNW,293,10.0,18.0,59,0.00,,,0.01,Wunderground v.1.12,2013-03-07 11:50:00,
2013-03-07 06:55:00,32.5,19.7,30.06,WNW,293,10.0,18.0,59,0.00,,,0.01,Wunderground v.1.12,2013-03-07 11:55:00,
2013-03-07 07:00:00,32.5,19.7,30.06,WNW,293,10.0,18.0,59,0.00,,,0.01,Wunderground v.1.12,2013-03-07 12:00:00,
2013-03-07 07:05:00,32.5,19.7,30.06,WNW,293,10.0,18.0,59,0.00,,,0.01,Wunderground v.1.12,2013-03-07 12:05:00,
2013-03-07 07:10:00,32.5,19.7,30.06,WNW,293,10.0,18.0,59,0.00,,,0.01,Wunderground v.1.12,2013-03-07 12:10:00,
2013-03-07 07:15:00,32.8,18.0,30.06,NW,315,10.0,21.0,54,0.00,,,0.01,Wunderground v.1.12,2013-03-07 12:15:00,
2013-03-07 07:20:00,32.8,18.0,30.06,NW,315,10.0,21.0,54,0.00,,,0.01,Wunderground v.1.12,2013-03-07 12:20:00,
2013-03-07 07:25:00,32.8,18.0,30.06,NW,315,10.0,21.0,54,0.00,,,0.01,Wunderground v.1.12,2013-03-07 12:25:00,
2013-03-07 07:30:00,32.8,18.0,30.06,NW,315,10.0,21.0,54,0.00,,,0.01,Wunderground v.1.12,2013-03-07 12:30:00,
2013-03-07 07:35:00,32.8,18.0,30.06,NW,315,10.0,21.0,54,0.00,,,0.01,Wunderground v.1.12,2013-03-07 12:35:00,
2013-03-07 07:40:00,32.8,18.0,30.06,NW,315,10.0,21.0,54,0.00,,,0.01,Wunderground v.1.12,2013-03-07 12:40:00,
2013-03-07 07:45:00,32.5,16.4,30.08,WNW,293,10.0,26.0,51,0.00,,,0.01,Wunderground v.1.12,2013-03-07 12:45:00,
2013-03-07 07:50:00,32.5,16.4,30.08,WNW,293,10.0,26.0,51,0.00,,,0.01,Wunderground v.1.12,2013-03-07 12:50:00,
2013-03-07 07:55:00,32.5,16.4,30.08,WNW,293,10.0,26.0,51,0.00,,,0.01,Wunderground v.1.12,2013-03-07 12:55:00,
2013-03-07 08:00:00,32.5,16.4,30.08,WNW,293,10.0,26.0,51,0.00,,,0.01,Wunderground v.1.12,2013-03-07 13:00:00,
2013-03-07 08:10:00,32.5,16.4,30.08,WNW,293,10.0,26.0,51,0.00,,,0.01,Wunderground v.1.12,2013-03-07 13:10:00,
2013-03-07 08:15:00,31.6,14.6,30.08,NW,315,9.0,18.0,49,0.00,,,0.01,Wunderground v.1.12,2013-03-07 13:15:00,
2013-03-07 08:20:00,31.6,14.6,30.08,NW,315,9.0,18.0,49,0.00,,,0.01,Wunderground v.1.12,2013-03-07 13:20:00,
2013-03-07 08:25:00,31.6,14.6,30.08,NW,315,9.0,18.0,49,0.00,,,0.01,Wunderground v.1.12,2013-03-07 13:25:00,
2013-03-07 08:30:00,31.6,14.6,30.08,NW,315,9.0,18.0,49,0.00,,,0.01,Wunderground v.1.12,2013-03-07 13:30:00,
2013-03-07 08:35:00,31.6,14.6,30.08,NW,315,9.0,18.0,49,0.00,,,0.01,Wunderground v.1.12,2013-03-07 13:35:00,
2013-03-07 08:40:00,31.6,14.6,30.08,NW,315,9.0,18.0,49,0.00,,,0.01,Wunderground v.1.12,2013-03-07 13:40:00,
2013-03-07 08:45:00,30.6,15.5,30.10,WNW,293,9.0,17.0,53,0.00,,,0.01,Wunderground v.1.12,2013-03-07 13:45:00,
2013-03-07 08:50:00,30.6,15.5,30.10,WNW,293,9.0,17.0,53,0.00,,,0.01,Wunderground v.1.12,2013-03-07 13:50:00,
2013-03-07 08:55:00,30.6,15.5,30.10,WNW,293,9.0,17.0,53,0.00,,,0.01,Wunderground v.1.12,2013-03-07 13:55:00,
2013-03-07 09:00:00,30.6,15.5,30.10,WNW,293,9.0,17.0,53,0.00,,,0.01,Wunderground v.1.12,2013-03-07 14:00:00,
2013-03-07 09:10:00,30.6,15.5,30.10,WNW,293,9.0,17.0,53,0.00,,,0.01,Wunderground v.1.12,2013-03-07 14:10:00,
2013-03-07 09:15:00,29.8,15.2,30.11,WNW,293,8.0,15.0,54,0.00,,,0.01,Wunderground v.1.12,2013-03-07 14:15:00,
2013-03-07 09:20:00,29.8,15.2,30.11,WNW,293,8.0,15.0,54,0.00,,,0.01,Wunderground v.1.12,2013-03-07 14:20:00,
2013-03-07 09:25:00,29.8,15.2,30.11,WNW,293,8.0,15.0,54,0.00,,,0.01,Wunderground v.1.12,2013-03-07 14:25:00,
2013-03-07 09:30:00,29.8,15.2,30.11,WNW,293,8.0,15.0,54,0.00,,,0.01,Wunderground v.1.12,2013-03-07 14:30:00,
2013-03-07 09:35:00,29.8,15.2,30.11,WNW,293,8.0,15.0,54,0.00,,,0.01,Wunderground v.1.12,2013-03-07 14:35:00,
2013-03-07 09:40:00,29.8,15.2,30.11,WNW,293,8.0,15.0,54,0.00,,,0.01,Wunderground v.1.12,2013-03-07 14:40:00,
2013-03-07 09:45:00,29.3,15.9,30.12,WNW,293,6.0,15.0,57,0.00,,,0.01,Wunderground v.1.12,2013-03-07 14:45:00,
2013-03-07 09:50:00,29.3,15.9,30.12,WNW,293,6.0,15.0,57,0.00,,,0.01,Wunderground v.1.12,2013-03-07 14:50:00,
2013-03-07 09:55:00,29.3,15.9,30.12,WNW,293,6.0,15.0,57,0.00,,,0.01,Wunderground v.1.12,2013-03-07 14:55:00,
2013-03-07 10:00:00,29.3,15.9,30.12,WNW,293,6.0,15.0,57,0.00,,,0.01,Wunderground v.1.12,2013-03-07 15:00:00,
2013-03-07 10:05:00,29.3,15.9,30.12,WNW,293,6.0,15.0,57,0.00,,,0.01,Wunderground v.1.12,2013-03-07 15:05:00,
2013-03-07 10:10:00,29.3,15.9,30.12,WNW,293,6.0,15.0,57,0.00,,,0.01,Wunderground v.1.12,2013-03-07 15:10:00,
2013-03-07 10:15:00,29.1,14.9,30.13,WNW,293,7.0,14.0,55,0.00,,,0.01,Wunderground v.1.12,2013-03-07 15:15:00,
2013-03-07 10:20:00,29.1,14.9,30.13,WNW,293,7.0,14.0,55,0.00,,,0.01,Wunderground v.1.12,2013-03-07 15:20:00,
2013-03-07 10:25:00,29.1,14.9,30.13,WNW,293,7.0,14.0,55,0.00,,,0.01,Wunderground v.1.12,2013-03-07 15:25:00,
2013-03-07 10:30:00,29.1,14.9,30.13,WNW,293,7.0,14.0,55,0.00,,,0.01,Wunderground v.1.12,2013-03-07 15:30:00,
2013-03-07 10:35:00,29.1,14.9,30.13,WNW,293,7.0,14.0,55,0.00,,,0.01,Wunderground v.1.12,2013-03-07 15:35:00,
2013-03-07 10:40:00,29.1,14.9,30.13,WNW,293,7.0,14.0,55,0.00,,,0.01,Wunderground v.1.12,2013-03-07 15:40:00,
2013-03-07 10:45:00,28.8,15.1,30.13,WNW,293,7.0,16.0,56,0.00,,,0.01,Wunderground v.1.12,2013-03-07 15:45:00,
2013-03-07 10:50:00,28.8,15.1,30.13,WNW,293,7.0,16.0,56,0.00,,,0.01,Wunderground v.1.12,2013-03-07 15:50:00,
2013-03-07 10:55:00,28.8,15.1,30.13,WNW,293,7.0,16.0,56,0.00,,,0.01,Wunderground v.1.12,2013-03-07 15:55:00,
2013-03-07 11:00:00,28.8,15.1,30.13,WNW,293,7.0,16.0,56,0.00,,,0.01,Wunderground v.1.12,2013-03-07 16:00:00,
2013-03-07 11:05:00,28.8,15.1,30.13,WNW,293,7.0,16.0,56,0.00,,,0.01,Wunderground v.1.12,2013-03-07 16:05:00,
2013-03-07 11:10:00,28.8,15.1,30.13,WNW,293,7.0,16.0,56,0.00,,,0.01,Wunderground v.1.12,2013-03-07 16:10:00,
2013-03-07 11:15:00,28.5,14.8,30.14,WNW,293,7.0,16.0,56,0.00,,,0.01,Wunderground v.1.12,2013-03-07 16:15:00,
2013-03-07 11:20:00,28.5,14.8,30.14,WNW,293,7.0,16.0,56,0.00,,,0.01,Wunderground v.1.12,2013-03-07 16:20:00,
2013-03-07 11:25:00,28.5,14.8,30.14,WNW,293,7.0,16.0,56,0.00,,,0.01,Wunderground v.1.12,2013-03-07 16:25:00,
2013-03-07 11:30:00,28.5,14.8,30.14,WNW,293,7.0,16.0,56,0.00,,,0.01,Wunderground v.1.12,2013-03-07 16:30:00,
2013-03-07 11:35:00,28.5,14.8,30.14,WNW,293,7.0,16.0,56,0.00,,,0.01,Wunderground v.1.12,2013-03-07 16:35:00,
2013-03-07 11:40:00,28.5,14.8,30.14,WNW,293,7.0,16.0,56,0.00,,,0.01,Wunderground v.1.12,2013-03-07 16:40:00,
2013-03-07 11:45:00,28.1,14.4,30.16,WNW,293,8.0,16.0,56,0.00,,,0.01,Wunderground v.1.12,2013-03-07 16:45:00,
2013-03-07 11:50:00,28.1,14.4,30.16,WNW,293,8.0,16.0,56,0.00,,,0.01,Wunderground v.1.12,2013-03-07 16:50:00,
2013-03-07 11:55:00,28.1,14.4,30.16,WNW,293,8.0,16.0,56,0.00,,,0.01,Wunderground v.1.12,2013-03-07 16:55:00,
2013-03-07 12:00:00,28.1,14.4,30.16,WNW,293,8.0,16.0,56,0.00,,,0.01,Wunderground v.1.12,2013-03-07 17:00:00,
2013-03-07 12:05:00,28.1,14.4,30.16,WNW,293,8.0,16.0,56,0.00,,,0.01,Wunderground v.1.12,2013-03-07 17:05:00,
2013-03-07 12:10:00,28.1,14.4,30.16,WNW,293,8.0,16.0,56,0.00,,,0.01,Wunderground v.1.12,2013-03-07 17:10:00,
2013-03-07 12:15:00,27.8,13.7,30.16,NW,315,8.0,17.0,55,0.00,,,0.01,Wunderground v.1.12,2013-03-07 17:15:00,
2013-03-07 12:20:00,27.8,13.7,30.16,NW,315,8.0,17.0,55,0.00,,,0.01,Wunderground v.1.12,2013-03-07 17:20:00,
2013-03-07 12:25:00,27.8,13.7,30.16,NW,315,8.0,17.0,55,0.00,,,0.01,Wunderground v.1.12,2013-03-07 17:25:00,
2013-03-07 12:30:00,27.8,13.7,30.16,NW,315,8.0,17.0,55,0.00,,,0.01,Wunderground v.1.12,2013-03-07 17:30:00,
2013-03-07 12:40:00,27.8,13.7,30.16,NW,315,8.0,17.0,55,0.00,,,0.01,Wunderground v.1.12,2013-03-07 17:40:00,
2013-03-07 12:45:00,27.5,12.6,30.16,NW,315,9.0,20.0,53,0.00,,,0.01,Wunderground v.1.12,2013-03-07 17:45:00,
2013-03-07 12:50:00,27.5,12.6,30.16,NW,315,9.0,20.0,53,0.00,,,0.01,Wunderground v.1.12,2013-03-07 17:50:00,
2013-03-07 12:55:00,27.5,12.6,30.16,NW,315,9.0,20.0,53,0.00,,,0.01,Wunderground v.1.12,2013-03-07 17:55:00,
2013-03-07 13:00:00,27.5,12.6,30.16,NW,315,9.0,20.0,53,0.00,,,0.01,Wunderground v.1.12,2013-03-07 18:00:00,
2013-03-07 13:05:00,27.5,12.6,30.16,NW,315,9.0,20.0,53,0.00,,,0.01,Wunderground v.1.12,2013-03-07 18:05:00,
2013-03-07 13:10:00,27.5,12.6,30.16,NW,315,9.0,20.0,53,0.00,,,0.01,Wunderground v.1.12,2013-03-07 18:10:00,
2013-03-07 13:15:00,27.3,12.0,30.16,NW,315,9.0,23.0,52,0.00,,,0.01,Wunderground v.1.12,2013-03-07 18:15:00,
2013-03-07 13:20:00,27.3,12.0,30.16,NW,315,9.0,23.0,52,0.00,,,0.01,Wunderground v.1.12,2013-03-07 18:20:00,
2013-03-07 13:25:00,27.3,12.0,30.16,NW,315,9.0,23.0,52,0.00,,,0.01,Wunderground v.1.12,2013-03-07 18:25:00,
2013-03-07 13:30:00,27.3,12.0,30.16,NW,315,9.0,23.0,52,0.00,,,0.01,Wunderground v.1.12,2013-03-07 18:30:00,
2013-03-07 13:35:00,27.3,12.0,30.16,NW,315,9.0,23.0,52,0.00,,,0.01,Wunderground v.1.12,2013-03-07 18:35:00,
2013-03-07 13:40:00,27.3,12.0,30.16,NW,315,9.0,23.0,52,0.00,,,0.01,Wunderground v.1.12,2013-03-07 18:40:00,
2013-03-07 13:45:00,26.9,12.0,30.17,NW,315,7.0,16.0,53,0.00,,,0.01,Wunderground v.1.12,2013-03-07 18:45:00,
2013-03-07 13:50:00,26.9,12.0,30.17,NW,315,7.0,16.0,53,0.00,,,0.01,Wunderground v.1.12,2013-03-07 18:50:00,
2013-03-07 13:55:00,26.9,12.0,30.17,NW,315,7.0,16.0,53,0.00,,,0.01,Wunderground v.1.12,2013-03-07 18:55:00,
2013-03-07 14:00:00,26.9,12.0,30.17,NW,315,7.0,16.0,53,0.00,,,0.01,Wunderground v.1.12,2013-03-07 19:00:00,
2013-03-07 14:05:00,26.9,12.0,30.17,NW,315,7.0,16.0,53,0.00,,,0.01,Wunderground v.1.12,2013-03-07 19:05:00,
2013-03-07 14:10:00,26.9,12.0,30.17,NW,315,7.0,16.0,53,0.00,,,0.01,Wunderground v.1.12,2013-03-07 19:10:00,
2013-03-07 14:15:00,26.6,11.7,30.17,NW,315,7.0,17.0,53,0.00,,,0.01,Wunderground v.1.12,2013-03-07 19:15:00,
2013-03-07 14:20:00,26.6,11.7,30.17,NW,315,7.0,17.0,53,0.00,,,0.01,Wunderground v.1.12,2013-03-07 19:20:00,
2013-03-07 14:25:00,26.6,11.7,30.17,NW,315,7.0,17.0,53,0.00,,,0.01,Wunderground v.1.12,2013-03-07 19:25:00,
2013-03-07 14:30:00,26.6,11.7,30.17,NW,315,7.0,17.0,53,0.00,,,0.01,Wunderground v.1.12,2013-03-07 19:30:00,
2013-03-07 14:35:00,26.6,11.7,30.17,NW,315,7.0,17.0,53,0.00,,,0.01,Wunderground v.1.12,2013-03-07 19:35:00,
2013-03-07 14:40:00,26.6,11.7,30.17,NW,315,7.0,17.0,53,0.00,,,0.01,Wunderground v.1.12,2013-03-07 19:40:00,
2013-03-07 14:45:00,26.4,11.6,30.18,NW,315,5.0,11.0,53,0.00,,,0.01,Wunderground v.1.12,2013-03-07 19:45:00,
2013-03-07 14:50:00,26.4,11.6,30.18,NW,315,5.0,11.0,53,0.00,,,0.01,Wunderground v.1.12,2013-03-07 19:50:00,
2013-03-07 14:55:00,26.4,11.6,30.18,NW,315,5.0,11.0,53,0.00,,,0.01,Wunderground v.1.12,2013-03-07 19:55:00,
2013-03-07 15:00:00,26.4,11.6,30.18,NW,315,5.0,11.0,53,0.00,,,0.01,Wunderground v.1.12,2013-03-07 20:00:00,
2013-03-07 15:10:00,26.4,11.6,30.18,NW,315,5.0,11.0,53,0.00,,,0.01,Wunderground v.1.12,2013-03-07 20:10:00,
2013-03-07 15:15:00,25.8,11.8,30.18,WNW,293,4.0,9.0,55,0.00,,,0.01,Wunderground v.1.12,2013-03-07 20:15:00,
2013-03-07 15:20:00,25.8,11.8,30.18,WNW,293,4.0,9.0,55,0.00,,,0.01,Wunderground v.1.12,2013-03-07 20:20:00,
2013-03-07 15:25:00,25.8,11.8,30.18,WNW,293,4.0,9.0,55,0.00,,,0.01,Wunderground v.1.12,2013-03-07 20:25:00,
2013-03-07 15:30:00,25.8,11.8,30.18,WNW,293,4.0,9.0,55,0.00,,,0.01,Wunderground v.1.12,2013-03-07 20:30:00,
2013-03-07 15:35:00,25.8,11.8,30.18,WNW,293,4.0,9.0,55,0.00,,,0.01,Wunderground v.1.12,2013-03-07 20:35:00,
2013-03-07 15:40:00,25.8,11.8,30.18,WNW,293,4.0,9.0,55,0.00,,,0.01,Wunderground v.1.12,2013-03-07 20:40:00,
2013-03-07 15:45:00,25.4,12.3,30.19,WNW,293,4.0,11.0,57,0.00,,,0.01,Wunderground v.1.12,2013-03-07 20:45:00,
2013-03-07 15:50:00,25.4,12.3,30.19,WNW,293,4.0,11.0,57,0.00,,,0.01,Wunderground v.1.12,2013-03-07 20:50:00,
2013-03-07 15:55:00,25.4,12.3,30.19,WNW,293,4.0,11.0,57,0.00,,,0.01,Wunderground v.1.12,2013-03-07 20:55:00,
2013-03-07 16:00:00,25.4,12.3,30.19,WNW,293,4.0,11.0,57,0.00,,,0.01,Wunderground v.1.12,2013-03-07 21:00:00,
2013-03-07 16:05:00,25.4,12.3,30.19,WNW,293,4.0,11.0,57,0.00,,,0.01,Wunderground v.1.12,2013-03-07 21:05:00,
2013-03-07 16:10:00,25.4,12.3,30.19,WNW,293,4.0,11.0,57,0.00,,,0.01,Wunderground v.1.12,2013-03-07 21:10:00,
2013-03-07 16:15:00,24.8,12.9,30.19,WNW,293,3.0,6.0,60,0.00,,,0.01,Wunderground v.1.12,2013-03-07 21:15:00,
2013-03-07 16:20:00,24.8,12.9,30.19,WNW,293,3.0,6.0,60,0.00,,,0.01,Wunderground v.1.12,2013-03-07 21:20:00,
2013-03-07 16:25:00,24.8,12.9,30.19,WNW,293,3.0,6.0,60,0.00,,,0.01,Wunderground v.1.12,2013-03-07 21:25:00,
2013-03-07 16:30:00,24.8,12.9,30.19,WNW,293,3.0,6.0,60,0.00,,,0.01,Wunderground v.1.12,2013-03-07 21:30:00,
2013-03-07 16:35:00,24.8,12.9,30.19,WNW,293,3.0,6.0,60,0.00,,,0.01,Wunderground v.1.12,2013-03-07 21:35:00,
2013-03-07 16:40:00,24.8,12.9,30.19,WNW,293,3.0,6.0,60,0.00,,,0.01,Wunderground v.1.12,2013-03-07 21:40:00,
2013-03-07 16:45:00,24.4,13.6,30.19,West,270,3.0,7.0,63,0.00,,,0.01,Wunderground v.1.12,2013-03-07 21:45:00,
2013-03-07 16:50:00,24.4,13.6,30.19,West,270,3.0,7.0,63,0.00,,,0.01,Wunderground v.1.12,2013-03-07 21:50:00,
2013-03-07 16:55:00,24.4,13.6,30.19,West,270,3.0,7.0,63,0.00,,,0.01,Wunderground v.1.12,2013-03-07 21:55:00,
2013-03-07 17:00:00,24.4,13.6,30.19,West,270,3.0,7.0,63,0.00,,,0.01,Wunderground v.1.12,2013-03-07 22:00:00,
2013-03-07 17:05:00,24.4,13.6,30.19,West,270,3.0,7.0,63,0.00,,,0.01,Wunderground v.1.12,2013-03-07 22:05:00,
2013-03-07 17:10:00,24.4,13.6,30.19,West,270,3.0,7.0,63,0.00,,,0.01,Wunderground v.1.12,2013-03-07 22:10:00,
2013-03-07 17:15:00,24.1,14.0,30.19,WNW,293,2.0,7.0,65,0.00,,,0.01,Wunderground v.1.12,2013-03-07 22:15:00,
2013-03-07 17:20:00,24.1,14.0,30.19,WNW,293,2.0,7.0,65,0.00,,,0.01,Wunderground v.1.12,2013-03-07 22:20:00,
2013-03-07 17:25:00,24.1,14.0,30.19,WNW,293,2.0,7.0,65,0.00,,,0.01,Wunderground v.1.12,2013-03-07 22:25:00,
2013-03-07 17:30:00,24.1,14.0,30.19,WNW,293,2.0,7.0,65,0.00,,,0.01,Wunderground v.1.12,2013-03-07 22:30:00,
2013-03-07 17:40:00,24.1,14.0,30.19,WNW,293,2.0,7.0,65,0.00,,,0.01,Wunderground v.1.12,2013-03-07 22:40:00,
2013-03-07 17:45:00,23.8,14.4,30.19,West,270,2.0,6.0,67,0.00,,,0.01,Wunderground v.1.12,2013-03-07 22:45:00,
2013-03-07 17:50:00,23.8,14.4,30.19,West,270,2.0,6.0,67,0.00,,,0.01,Wunderground v.1.12,2013-03-07 22:50:00,
2013-03-07 17:55:00,23.8,14.4,30.19,West,270,2.0,6.0,67,0.00,,,0.01,Wunderground v.1.12,2013-03-07 22:55:00,
2013-03-07 18:00:00,23.8,14.4,30.19,West,270,2.0,6.0,67,0.00,,,0.01,Wunderground v.1.12,2013-03-07 23:00:00,
2013-03-07 18:05:00,23.8,14.4,30.19,West,270,2.0,6.0,67,0.00,,,0.01,Wunderground v.1.12,2013-03-07 23:05:00,
2013-03-07 18:10:00,23.8,14.4,30.19,West,270,2.0,6.0,67,0.00,,,0.01,Wunderground v.1.12,2013-03-07 23:10:00,
2013-03-07 18:15:00,23.3,14.6,30.19,West,270,2.0,6.0,69,0.00,,,0.01,Wunderground v.1.12,2013-03-07 23:15:00,
2013-03-07 18:20:00,23.3,14.6,30.19,West,270,2.0,6.0,69,0.00,,,0.01,Wunderground v.1.12,2013-03-07 23:20:00,
2013-03-07 18:25:00,23.3,14.6,30.19,West,270,2.0,6.0,69,0.00,,,0.01,Wunderground v.1.12,2013-03-07 23:25:00,
2013-03-07 18:30:00,23.3,14.6,30.19,West,270,2.0,6.0,69,0.00,,,0.01,Wunderground v.1.12,2013-03-07 23:30:00,
2013-03-07 18:35:00,23.3,14.6,30.19,West,270,2.0,6.0,69,0.00,,,0.01,Wunderground v.1.12,2013-03-07 23:35:00,
2013-03-07 18:40:00,23.3,14.6,30.19,West,270,2.0,6.0,69,0.00,,,0.01,Wunderground v.1.12,2013-03-07 23:40:00,
2013-03-07 18:45:00,22.9,14.9,30.19,West,270,2.0,6.0,71,0.00,,,0.01,Wunderground v.1.12,2013-03-07 23:45:00,
2013-03-07 18:50:00,22.9,14.9,30.19,West,270,2.0,6.0,71,0.00,,,0.01,Wunderground v.1.12,2013-03-07 23:50:00,
2013-03-07 18:55:00,22.9,14.9,30.19,West,270,2.0,6.0,71,0.00,,,0.01,Wunderground v.1.12,2013-03-07 23:55:00,
2013-03-07 19:00:00,22.9,14.9,30.19,West,270,2.0,6.0,71,0.00,,,0.01,Wunderground v.1.12,2013-03-08 00:00:00,
2013-03-07 19:05:00,22.9,14.9,30.19,West,270,2.0,6.0,71,0.00,,,0.01,Wunderground v.1.12,2013-03-08 00:05:00,
2013-03-07 19:10:00,22.9,14.9,30.19,West,270,2.0,6.0,71,0.00,,,0.01,Wunderground v.1.12,2013-03-08 00:10:00,
2013-03-07 19:15:00,22.7,15.0,30.20,West,270,2.0,6.0,72,0.00,,,0.01,Wunderground v.1.12,2013-03-08 00:15:00,
2013-03-07 19:20:00,22.7,15.0,30.20,West,270,2.0,6.0,72,0.00,,,0.01,Wunderground v.1.12,2013-03-08 00:20:00,
2013-03-07 19:25:00,22.7,15.0,30.20,West,270,2.0,6.0,72,0.00,,,0.01,Wunderground v.1.12,2013-03-08 00:25:00,
2013-03-07 19:30:00,22.7,15.0,30.20,West,270,2.0,6.0,72,0.00,,,0.01,Wunderground v.1.12,2013-03-08 00:30:00,
2013-03-07 19:35:00,22.7,15.0,30.20,West,270,2.0,6.0,72,0.00,,,0.01,Wunderground v.1.12,2013-03-08 00:35:00,
2013-03-07 19:40:00,22.7,15.0,30.20,West,270,2.0,6.0,72,0.00,,,0.01,Wunderground v.1.12,2013-03-08 00:40:00,
2013-03-07 19:45:00,22.4,15.1,30.20,West,270,2.0,4.0,73,0.00,,,0.01,Wunderground v.1.12,2013-03-08 00:45:00,
2013-03-07 19:50:00,22.4,15.1,30.20,West,270,2.0,4.0,73,0.00,,,0.01,Wunderground v.1.12,2013-03-08 00:50:00,
2013-03-07 19:55:00,22.4,15.1,30.20,West,270,2.0,4.0,73,0.00,,,0.01,Wunderground v.1.12,2013-03-08 00:55:00,
2013-03-07 20:00:00,22.4,15.1,30.20,West,270,2.0,4.0,73,0.00,,,0.01,Wunderground v.1.12,2013-03-08 01:00:00,
2013-03-07 20:05:00,22.4,15.1,30.20,West,270,2.0,4.0,73,0.00,,,0.01,Wunderground v.1.12,2013-03-08 01:05:00,
2013-03-07 20:10:00,22.4,15.1,30.20,West,270,2.0,4.0,73,0.00,,,0.01,Wunderground v.1.12,2013-03-08 01:10:00,
2013-03-07 20:15:00,22.1,15.1,30.21,West,270,2.0,4.0,74,0.00,,,0.01,Wunderground v.1.12,2013-03-08 01:15:00,
2013-03-07 20:20:00,22.1,15.1,30.21,West,270,2.0,4.0,74,0.00,,,0.01,Wunderground v.1.12,2013-03-08 01:20:00,
2013-03-07 20:25:00,22.1,15.1,30.21,West,270,2.0,4.0,74,0.00,,,0.01,Wunderground v.1.12,2013-03-08 01:25:00,
2013-03-07 20:30:00,22.1,15.1,30.21,West,270,2.0,4.0,74,0.00,,,0.01,Wunderground v.1.12,2013-03-08 01:30:00,
2013-03-07 20:35:00,22.1,15.1,30.21,West,270,2.0,4.0,74,0.00,,,0.01,Wunderground v.1.12,2013-03-08 01:35:00,
2013-03-07 20:40:00,22.1,15.1,30.21,West,270,2.0,4.0,74,0.00,,,0.01,Wunderground v.1.12,2013-03-08 01:40:00,
2013-03-07 20:45:00,21.9,15.2,30.21,West,270,2.0,5.0,75,0.00,,,0.01,Wunderground v.1.12,2013-03-08 01:45:00,
2013-03-07 20:50:00,21.9,15.2,30.21,West,270,2.0,5.0,75,0.00,,,0.01,Wunderground v.1.12,2013-03-08 01:50:00,
2013-03-07 20:55:00,21.9,15.2,30.21,West,270,2.0,5.0,75,0.00,,,0.01,Wunderground v.1.12,2013-03-08 01:55:00,
2013-03-07 21:00:00,21.9,15.2,30.21,West,270,2.0,5.0,75,0.00,,,0.01,Wunderground v.1.12,2013-03-08 02:00:00,
2013-03-07 21:05:00,21.9,15.2,30.21,West,270,2.0,5.0,75,0.00,,,0.01,Wunderground v.1.12,2013-03-08 02:05:00,
2013-03-07 21:10:00,21.9,15.2,30.21,West,270,2.0,5.0,75,0.00,,,0.01,Wunderground v.1.12,2013-03-08 02:10:00,
2013-03-07 21:15:00,22.2,15.8,30.22,West,270,2.0,6.0,76,0.00,,,0.01,Wunderground v.1.12,2013-03-08 02:15:00,
2013-03-07 21:20:00,22.2,15.8,30.22,West,270,2.0,6.0,76,0.00,,,0.01,Wunderground v.1.12,2013-03-08 02:20:00,
2013-03-07 21:25:00,22.2,15.8,30.22,West,270,2.0,6.0,76,0.00,,,0.01,Wunderground v.1.12,2013-03-08 02:25:00,
2013-03-07 21:30:00,22.2,15.8,30.22,West,270,2.0,6.0,76,0.00,,,0.01,Wunderground v.1.12,2013-03-08 02:30:00,
2013-03-07 21:35:00,22.2,15.8,30.22,West,270,2.0,6.0,76,0.00,,,0.01,Wunderground v.1.12,2013-03-08 02:35:00,
2013-03-07 21:40:00,22.2,15.8,30.22,West,270,2.0,6.0,76,0.00,,,0.01,Wunderground v.1.12,2013-03-08 02:40:00,
2013-03-07 21:45:00,23.6,16.5,30.23,West,270,3.0,8.0,74,0.00,,,0.01,Wunderground v.1.12,2013-03-08 02:45:00,
2013-03-07 21:50:00,23.6,16.5,30.23,West,270,3.0,8.0,74,0.00,,,0.01,Wunderground v.1.12,2013-03-08 02:50:00,
2013-03-07 21:55:00,23.6,16.5,30.23,West,270,3.0,8.0,74,0.00,,,0.01,Wunderground v.1.12,2013-03-08 02:55:00,
2013-03-07 22:00:00,23.6,16.5,30.23,West,270,3.0,8.0,74,0.00,,,0.01,Wunderground v.1.12,2013-03-08 03:00:00,
2013-03-07 22:05:00,23.6,16.5,30.23,West,270,3.0,8.0,74,0.00,,,0.01,Wunderground v.1.12,2013-03-08 03:05:00,
2013-03-07 22:10:00,23.6,16.5,30.23,West,270,3.0,8.0,74,0.00,,,0.01,Wunderground v.1.12,2013-03-08 03:10:00,
2013-03-07 22:15:00,25.3,17.2,30.23,WNW,293,4.0,9.0,71,0.00,,,0.01,Wunderground v.1.12,2013-03-08 03:15:00,
2013-03-07 22:20:00,25.3,17.2,30.23,WNW,293,4.0,9.0,71,0.00,,,0.01,Wunderground v.1.12,2013-03-08 03:20:00,
2013-03-07 22:25:00,25.3,17.2,30.23,WNW,293,4.0,9.0,71,0.00,,,0.01,Wunderground v.1.12,2013-03-08 03:25:00,
2013-03-07 22:30:00,25.3,17.2,30.23,WNW,293,4.0,9.0,71,0.00,,,0.01,Wunderground v.1.12,2013-03-08 03:30:00,
2013-03-07 22:35:00,25.3,17.2,30.23,WNW,293,4.0,9.0,71,0.00,,,0.01,Wunderground v.1.12,2013-03-08 03:35:00,
2013-03-07 22:40:00,25.3,17.2,30.23,WNW,293,4.0,9.0,71,0.00,,,0.01,Wunderground v.1.12,2013-03-08 03:40:00,
2013-03-07 22:45:00,26.9,17.4,30.24,WNW,293,5.0,10.0,67,0.00,,,0.01,Wunderground v.1.12,2013-03-08 03:45:00,
2013-03-07 22:50:00,26.9,17.4,30.24,WNW,293,5.0,10.0,67,0.00,,,0.01,Wunderground v.1.12,2013-03-08 03:50:00,
2013-03-07 22:55:00,26.9,17.4,30.24,WNW,293,5.0,10.0,67,0.00,,,0.01,Wunderground v.1.12,2013-03-08 03:55:00,
2013-03-07 23:00:00,26.9,17.4,30.24,WNW,293,5.0,10.0,67,0.00,,,0.01,Wunderground v.1.12,2013-03-08 04:00:00,
2013-03-07 23:05:00,26.9,17.4,30.24,WNW,293,5.0,10.0,67,0.00,,,0.01,Wunderground v.1.12,2013-03-08 04:05:00,
2013-03-07 23:10:00,26.9,17.4,30.24,WNW,293,5.0,10.0,67,0.00,,,0.01,Wunderground v.1.12,2013-03-08 04:10:00,
2013-03-07 23:15:00,28.7,17.3,30.24,WNW,293,5.0,10.0,62,0.00,,,0.01,Wunderground v.1.12,2013-03-08 04:15:00,
2013-03-07 23:20:00,28.7,17.3,30.24,WNW,293,5.0,10.0,62,0.00,,,0.01,Wunderground v.1.12,2013-03-08 04:20:00,
2013-03-07 23:25:00,28.7,17.3,30.24,WNW,293,5.0,10.0,62,0.00,,,0.01,Wunderground v.1.12,2013-03-08 04:25:00,
2013-03-07 23:30:00,28.7,17.3,30.24,WNW,293,5.0,10.0,62,0.00,,,0.01,Wunderground v.1.12,2013-03-08 04:30:00,
2013-03-07 23:35:00,28.7,17.3,30.24,WNW,293,5.0,10.0,62,0.00,,,0.01,Wunderground v.1.12,2013-03-08 04:35:00,
2013-03-07 23:40:00,28.7,17.3,30.24,WNW,293,5.0,10.0,62,0.00,,,0.01,Wunderground v.1.12,2013-03-08 04:40:00,
2013-03-07 23:45:00,30.0,17.0,30.24,NW,315,5.0,12.0,58,0.00,,,0.01,Wunderground v.1.12,2013-03-08 04:45:00,
2013-03-07 23:50:00,30.0,17.0,30.24,NW,315,5.0,12.0,58,0.00,,,0.01,Wunderground v.1.12,2013-03-08 04:50:00,
2013-03-07 23:55:00,30.0,17.0,30.24,NW,315,5.0,12.0,58,0.00,,,0.01,Wunderground v.1.12,2013-03-08 04:55:00,